This is the latest recevied weather packets stored in our database for station/object CE3MXM-13. If no packets are shown the sender has not sent any weather packets the latest 10 day(s).
| Time | Temp. | Humidity | Pressure | Rain* | Wind** | Luminosity | Snow |
|---|---|---|---|---|---|---|---|
| 1777760627 | 17.22° C | 65% | 1011.8 hPa | - | - | - | - |
| 1777760327 | 17.78° C | 63% | 1011.6 hPa | - | - | - | - |
| 1777760026 | 18.33° C | 62% | 1011.2 hPa | - | - | - | - |
| 1777759726 | 18.89° C | 60% | 1011.4 hPa | - | - | - | - |
| 1777759426 | 19.44° C | 58% | 1011.5 hPa | - | - | - | - |
| 1777759126 | 19.44° C | 57% | 1011.5 hPa | - | - | - | - |
| 1777758826 | 20.56° C | 56% | 1011.5 hPa | - | - | - | - |
| 1777758526 | 21.11° C | 55% | 1011.5 hPa | - | - | - | - |
| 1777758226 | 21.67° C | 52% | 1011.4 hPa | - | - | - | - |
| 1777757926 | 22.22° C | 50% | 1011.3 hPa | - | - | - | - |
| 1777757625 | 22.78° C | 48% | 1011.3 hPa | - | - | - | - |
| 1777757325 | 23.33° C | 48% | 1011.4 hPa | - | - | - | - |
| 1777757025 | 23.89° C | 46% | 1011.4 hPa | - | - | - | - |
| 1777756725 | 24.44° C | 44% | 1011.4 hPa | - | - | - | - |
| 1777756425 | 25.56° C | 42% | 1011.2 hPa | - | - | - | - |
| 1777756125 | 26.67° C | 40% | 1011.1 hPa | - | - | - | - |
| 1777755825 | 27.78° C | 37% | 1011.2 hPa | - | - | - | - |
| 1777755525 | 27.78° C | 36% | 1011.2 hPa | - | - | - | - |
| 1777755225 | 27.78° C | 35% | 1011 hPa | - | - | - | - |
| 1777754925 | 27.22° C | 34% | 1011.1 hPa | - | - | - | - |
| 1777754625 | 27.22° C | 34% | 1011 hPa | - | - | - | - |
| 1777754325 | 26.67° C | 35% | 1011.1 hPa | - | - | - | - |
| 1777754025 | 27.22° C | 34% | 1011 hPa | - | - | - | - |
| 1777753724 | 27.22° C | 35% | 1011.2 hPa | - | - | - | - |
| 1777753424 | 27.22° C | 34% | 1010.9 hPa | - | - | - | - |
* Rain since midnight (hover to see other rain measurements)
** Current wind speed in m/s (hover to see current wind gust speed)